Date, Wind Speed (m/s), Wind gust (m/s)
2022-11-23 00:35:00,6.59,8.28 
2022-11-23 01:35:00,7.23,8.65 
2022-11-23 02:35:00,6.61,8.25 
2022-11-23 03:05:00,6.11,7.41 
2022-11-23 03:35:00,6.89,8.26 
2022-11-23 04:35:00,7.57,8.95 
2022-11-23 05:05:00,7.51,8.81 
2022-11-23 05:35:00,6.76,8.05 
2022-11-23 06:05:00,5.67,6.81 
2022-11-23 06:35:00,5.69,6.97 
2022-11-23 07:05:00,6.01,7.17 
2022-11-23 07:35:00,6.15,7.62 
2022-11-23 08:35:00,7.16,8.72 
2022-11-23 09:05:00,7.40,9.12 
2022-11-23 09:35:00,7.12,8.43 
2022-11-23 10:05:00,6.31,7.69 
2022-11-23 10:35:00,5.52,6.82 
2022-11-23 11:05:00,4.35,5.46 
2022-11-23 11:35:00,3.75,5.85 
2022-11-23 12:35:00,3.01,4.33 
2022-11-23 13:35:00,2.97,4.42 
2022-11-23 14:35:00,5.15,6.43 
2022-11-23 15:35:00,6.10,8.17 
2022-11-23 16:35:00,5.72,7.42 
2022-11-23 17:05:00,5.05,6.32 
2022-11-23 17:35:00,4.53,5.63 
2022-11-23 18:35:00,4.60,6.05 
2022-11-23 19:05:00,3.57,4.65 
2022-11-23 19:35:00,2.57,3.80 
2022-11-23 20:35:00,2.45,3.26 
2022-11-23 21:35:00,2.76,4.14 
2022-11-23 22:35:00,4.48,5.46 
2022-11-23 23:35:00,4.76,5.85 
2022-11-24 00:05:00,5.35,6.79 
2022-11-24 00:35:00,5.56,6.65 
2022-11-24 01:05:00,6.10,7.20 
2022-11-24 01:35:00,5.36,6.52 
2022-11-24 02:05:00,6.00,7.14 
2022-11-24 02:35:00,5.54,6.55 
2022-11-24 03:35:00,4.98,6.00 
2022-11-24 04:35:00,4.24,5.53 
2022-11-24 05:35:00,5.99,7.66 
2022-11-24 06:35:00,5.79,6.94 
2022-11-24 07:35:00,4.76,6.01 
2022-11-24 08:05:00,5.52,6.75 
2022-11-24 08:35:00,5.21,6.31 
2022-11-24 09:05:00,5.30,6.33 
2022-11-24 09:35:00,4.91,5.89 
2022-11-24 10:05:00,4.56,6.10 
2022-11-24 10:35:00,4.06,5.00 
2022-11-24 11:35:00,4.50,5.50 
2022-11-24 12:35:00,4.69,5.68 
2022-11-24 13:05:00,3.83,4.64 
2022-11-24 13:35:00,3.67,5.35 
2022-11-24 14:35:00,4.19,6.03 
2022-11-24 15:35:00,4.14,6.00 
2022-11-24 16:05:00,3.89,5.59 
2022-11-24 16:35:00,3.33,4.48 
2022-11-24 17:35:00,1.98,3.06 
2022-11-24 18:05:00,2.05,3.07 
2022-11-24 18:35:00,1.92,2.86 
2022-11-24 19:35:00,2.53,3.19 
2022-11-24 20:35:00,3.79,4.63 
2022-11-24 21:35:00,4.41,5.43 
2022-11-24 22:35:00,4.14,4.78 
2022-11-24 23:35:00,4.42,5.41 
2022-11-25 00:35:00,4.67,5.60 
2022-11-25 01:35:00,3.96,4.94 
2022-11-25 02:05:00,3.72,4.63 
2022-11-25 02:35:00,4.36,5.28 
2022-11-25 03:35:00,4.21,5.49 
2022-11-25 04:35:00,3.08,4.01 
2022-11-25 05:35:00,2.80,3.38 
2022-11-25 06:35:00,3.14,3.86 
2022-11-25 07:05:00,2.88,3.53 
2022-11-25 07:35:00,3.00,3.74 
2022-11-25 08:35:00,3.06,3.64 
2022-11-25 09:35:00,2.21,3.02 
2022-11-25 10:05:00,1.82,2.38 
2022-11-25 10:35:00,1.32,1.79 
2022-11-25 11:35:00,0.50,0.86 
2022-11-25 12:05:00,0.36,0.62 
2022-11-25 12:35:00,0.67,0.97 
2022-11-25 13:05:00,1.75,2.12 
2022-11-25 13:35:00,1.35,1.68 
2022-11-25 14:35:00,1.73,2.17 
2022-11-25 15:35:00,2.57,3.31 
2022-11-25 16:35:00,3.56,4.26 
2022-11-25 17:35:00,2.80,3.47 
2022-11-25 18:35:00,2.20,2.97 
2022-11-25 19:05:00,1.70,2.21 
2022-11-25 19:35:00,2.22,2.64 
2022-11-25 20:35:00,2.25,3.10 
2022-11-25 21:35:00,1.99,2.80 
2022-11-25 22:05:00,2.07,2.59 
2022-11-25 22:35:00,1.42,1.96 
2022-11-25 23:05:00,1.78,1.74 
2022-11-26 00:05:00,1.67,2.29 
2022-11-26 00:35:00,2.70,3.39 
2022-11-26 01:35:00,1.30,1.80 
2022-11-26 02:35:00,0.61,0.89 
2022-11-26 03:05:00,0.70,0.90 
2022-11-26 03:35:00,0.45,0.91 
2022-11-26 04:05:00,1.37,1.75 
2022-11-26 04:35:00,1.12,1.53 
2022-11-26 05:35:00,1.14,1.68 
2022-11-26 06:05:00,1.36,1.67 
2022-11-26 06:35:00,1.99,2.50 
2022-11-26 07:05:00,1.86,2.36 
2022-11-26 07:35:00,1.60,2.09 
2022-11-26 08:05:00,1.56,2.02 
2022-11-26 08:35:00,1.28,1.60 
2022-11-26 09:35:00,1.54,2.19 
2022-11-26 10:35:00,2.34,2.86 
2022-11-26 11:05:00,2.86,3.77 
2022-11-26 11:35:00,3.43,4.27 
2022-11-26 12:05:00,3.45,4.27 
2022-11-26 12:35:00,4.40,5.32 
2022-11-26 13:05:00,4.48,5.30 
2022-11-26 13:35:00,3.35,4.34 
2022-11-26 14:35:00,4.18,5.72 
2022-11-26 15:35:00,3.98,5.14 
2022-11-26 16:35:00,4.89,6.12 
2022-11-26 17:35:00,4.31,5.61 
2022-11-26 18:35:00,2.78,3.63 
2022-11-26 19:35:00,1.33,1.88 
2022-11-26 20:35:00,1.66,2.44 
2022-11-26 21:35:00,1.62,2.23 
2022-11-26 22:35:00,1.76,2.33 
2022-11-26 23:35:00,2.20,2.72 
2022-11-27 00:35:00,1.21,1.68 
2022-11-27 01:35:00,1.61,2.05 
2022-11-27 02:35:00,1.14,1.84 
2022-11-27 03:35:00,2.02,2.60 
2022-11-27 04:05:00,2.20,2.77 
2022-11-27 04:35:00,3.16,3.77 
2022-11-27 05:05:00,3.56,4.26 
2022-11-27 05:35:00,4.24,5.07 
2022-11-27 06:35:00,4.65,5.54 
2022-11-27 07:05:00,4.19,5.19 
2022-11-27 07:35:00,4.21,5.64 
2022-11-27 08:35:00,4.37,5.57 
2022-11-27 09:35:00,4.94,5.93 
2022-11-27 10:35:00,5.58,6.57 
2022-11-27 11:35:00,4.07,5.12 
2022-11-27 12:35:00,4.61,5.73 
2022-11-27 13:35:00,5.23,6.39 
2022-11-27 14:35:00,5.00,6.10 
2022-11-27 15:35:00,5.06,5.88 
2022-11-27 16:35:00,5.14,6.41 
2022-11-27 17:35:00,5.22,6.33 
2022-11-27 18:35:00,4.70,5.68 
2022-11-27 19:05:00,4.71,5.76 
2022-11-27 19:35:00,4.50,5.49 
2022-11-27 20:35:00,4.66,5.55 
2022-11-27 21:35:00,3.85,4.73 
2022-11-27 22:35:00,4.30,5.34 
2022-11-27 23:35:00,4.48,6.51 
2022-11-28 00:35:00,3.79,4.56 
2022-11-28 01:05:00,4.87,5.99 
2022-11-28 01:35:00,4.95,5.98 
2022-11-28 02:35:00,4.80,6.18 
2022-11-28 03:35:00,4.12,5.43 
2022-11-28 04:35:00,3.40,4.89 
2022-11-28 05:35:00,3.10,3.71 
2022-11-28 06:35:00,3.30,4.25 
2022-11-28 07:05:00,2.79,3.71 
2022-11-28 07:35:00,2.97,3.72 
2022-11-28 08:35:00,2.42,3.43 
2022-11-28 09:35:00,1.73,2.47 
2022-11-28 10:05:00,2.38,3.18 
2022-11-28 10:35:00,2.75,3.80 
2022-11-28 11:35:00,3.12,3.90 
2022-11-28 12:35:00,3.48,4.43 
2022-11-28 13:35:00,3.22,4.26 
2022-11-28 14:35:00,3.20,4.54 
2022-11-28 15:35:00,4.69,5.92 
2022-11-28 16:35:00,3.42,4.48 
2022-11-28 17:35:00,3.40,4.33 
2022-11-28 18:05:00,4.04,5.02 
2022-11-28 18:35:00,3.83,4.97 
2022-11-28 19:35:00,2.78,4.03 
2022-11-28 20:35:00,2.54,3.72 
2022-11-28 21:35:00,2.30,3.10 
2022-11-28 22:35:00,3.00,3.65 
2022-11-28 23:35:00,3.51,4.47 
2022-11-29 00:35:00,4.01,4.93 
2022-11-29 01:35:00,4.64,5.55 
2022-11-29 02:05:00,4.43,5.41 
2022-11-29 02:35:00,4.34,5.25 
2022-11-29 03:35:00,4.63,5.78 
2022-11-29 04:35:00,4.69,6.02 
2022-11-29 05:05:00,4.62,5.97 
2022-11-29 05:35:00,4.71,6.03 
2022-11-29 06:35:00,4.59,5.67 
2022-11-29 07:35:00,4.71,5.87 
2022-11-29 08:35:00,5.17,6.16 
2022-11-29 09:05:00,5.00,6.20 
2022-11-29 09:35:00,4.77,5.82 
2022-11-29 10:35:00,5.23,6.43 
2022-11-29 11:35:00,5.32,6.33 
2022-11-29 12:05:00,5.48,6.73 
2022-11-29 12:35:00,5.57,6.66 
2022-11-29 13:05:00,5.65,6.79 
2022-11-29 13:35:00,6.37,7.96 
2022-11-29 14:35:00,6.97,8.23 
2022-11-29 15:35:00,6.10,7.12 
2022-11-29 16:05:00,6.03,7.19 
2022-11-29 16:35:00,5.48,6.56 
2022-11-29 17:35:00,4.84,6.01 
2022-11-29 18:35:00,3.70,4.62 
2022-11-29 19:35:00,2.21,2.92 
2022-11-29 20:35:00,1.80,2.53 
2022-11-29 21:35:00,0.94,1.44 
2022-11-29 22:35:00,1.75,2.13 
2022-11-29 23:35:00,2.39,3.10 
